STARLINK-4712, 53798

Orbit data source: Space-Track

STARLINK-4712, 53798 is a payload satellite owned by SpaceX/Seattle (US) in LEO that was launched on Sun, 11 Sep 2022 UTC via an FALCON 9 launch vehicle from the Air Force Eastern Test Range (AFETR). Payload-class satellites include a variety of spacecraft equipped with specific instruments for various scientific and technological missions. These include communications satellites like Starlink; space stations such as the ISS; scientific satellites like the Hubble; Earth observation satellites from companies like Planet Labs, Umbra, and HawkEye 360; GPS; miniature CubeSats for education and research; and military/defense satellites.

Loading next visibility...
Identifier
53798, 2022-111AB
Orbit
LEO
Last TLE update
15 hours ago
Origin
Manufacturer
SpaceX/Seattle
Mission
Operational Commercial Communications
Bus & Motor
STARLINK, Unknown motor
Mass
305 kg wet, ~290 kg dry
Launch date (UTC)
2022-09-11 (3 years ago)
Launch vehicle
FALCON 9
Launch site
Air Force Eastern Test Range (AFETR)
Object type
Payload
Rocket body
Debris
Shape & HBR
Box + 1 Pan, 8.86 m
Radar Cross Section
13.562 m², Large (>1 m²)

Expand to show TLE details & history

TLE from 15 hours ago
0 STARLINK-4712
1 53798U 22111AB  25183.64594575 -.00000702  00000-0 -26025-4 0  9993
2 53798  53.2185 316.2123 0001272  95.3553 264.7585 15.08841869155938
Epoch: 2025-07-02T15:30Z
TLE epoch observation values (Epoch: 2025-07-02T15:30:09.712Z)
Latitude
0.00002°
Longitude
162.74778°
Altitude
540.716 km
Speed
7.593 km/s
True Right ascension
21h 04m 50s
True Declination
0° 00' 00"
Sunlit
Object was in full shadow at epoch
Visualization orbit readout
Latitude
48.16771°
Longitude
-143.82394°
Altitude
544.386 km
Speed
7.596 km/s
Apparent Right ascension
03h 20m 47s
Apparent Declination
8° 12' 15"
Sunlit
Object is in daylight
Visualization observer readout
Local Sidereal Time
17:52:17
Azimuth
44.85° NE
Elevation
-30.51°
Doppler factor
1
Orbital elements
Apogee altitude
540.862 km
Perigee altitude
539.102 km
Semi-major axis
6,918.119 km
Eccentricity
0.00013
Inclination
53.2185°
RAAN
316.2123°
Arg. of periapsis
95.3553°
True anomaly
Unknown
Mean anomaly
264.7585°
Eccentric anomaly
Unknown
Mean motion
3.77191 °/min
Orbital period
95.44 mins
BSTAR
-0.000026025
Loading maneuver chart data...
Loading SW <> Apogee altitude chart data...
Loading historical data...
Loading historical data...
Loading historical data...
Loading historical data...
Loading historical data...
Loading historical data...
Loading historical data...

STARLINK-4712 Visibility forecast

Observer location: undefined°, undefined°

Span
Click to sort rows by Start time (UTC) header in descending order
Start Az.
Max El. time (UTC)
Max El. Az.
Max El.
End time (UTC)
End Az.
6 mins2025-07-03 10:43:39.607Z192.291° SSW2025-07-03 10:46:39.607Z141.494° SSE27.142°2025-07-03 10:49:39.607Z75.86° E
6 mins2025-07-03 12:23:39.607Z267.104° W2025-07-03 12:26:39.607Z343.215° N31.03°2025-07-03 12:29:39.607Z35.318° NE
5 mins2025-07-03 17:25:39.607Z341.096° N2025-07-03 17:27:39.607Z33.315° NE29.593°2025-07-03 17:30:39.607Z93.229° ESE
5 mins2025-07-03 19:04:39.607Z282.546° WNW2025-07-03 19:06:39.607Z236.988° WSW30.065°2025-07-03 19:09:39.607Z168.016° S
|